STARLINK-30478, 57911

Orbit data source: Space-Track

STARLINK-30478, 57911 is a payload satellite owned by SpaceX/Seattle (US) in LEO that was launched on Wed, 20 Sep 2023 UTC via an FALCON 9 launch vehicle from the Air Force Eastern Test Range (AFETR). Payload-class satellites include a variety of spacecraft equipped with specific instruments for various scientific and technological missions. These include communications satellites like Starlink; space stations such as the ISS; scientific satellites like the Hubble; Earth observation satellites from companies like Planet Labs, Umbra, and HawkEye 360; GPS; miniature CubeSats for education and research; and military/defense satellites.

Loading next visibility...
Identifier
57911, 2023-146W
Orbit
LEO
Country
Flag of USUS
Related business
Manufacturer
SpaceX/Seattle
Mission
Operational Commercial Communications
Bus & Motor
STARLINK V2M, Unknown motor
Mass
730 kg wet, ~700 kg dry
Launch date (UTC)
2023-09-20 (3 years ago)
Launch vehicle
FALCON 9
Launch site
Air Force Eastern Test Range (AFETR)
Object type
Payload
Rocket body
Debris
Shape & HBR
Box + 2 Pan, 17.7 m
Radar Cross Section
33.884 m², Large (>1 m²)

Expand to show TLE details & history
Last TLE update: 2 days ago

TLE from 2 days ago
0 STARLINK-30478
1 57911U 23146W   26171.11807849  .00002636  00000-0  10535-3 0  9998
2 57911  43.0063  95.5360 0002006 256.5052 103.5576 15.27564294152721
Epoch: 2026-06-20T02:50Z
TLE epoch observation values (Epoch: 2026-06-20T02:50:01.981Z)
Latitude
-0.00004°
Longitude
144.69041°
Altitude
483.195 km
Speed
7.625 km/s
True Right ascension
06h 22m 08s
True Declination
0° 00' 00"
Sunlit
Object was in daylight at epoch
Visualization orbit readout
Latitude
Unknown
Longitude
Unknown
Altitude
Unknown
Speed
Unknown
Apparent Right ascension
Unknown
Apparent Declination
Unknown
Sunlit
N/A
Visualization observer readout
Local Sidereal Time
21:29:31
Azimuth
Unknown
Elevation
Unknown
Doppler factor
Unknown
Orbital elements
Apogee altitude
486.417 km
Perigee altitude
483.663 km
Semi-major axis
6,863.177 km
Eccentricity
0.0002
Inclination
43.0063°
RAAN
95.536°
Arg. of periapsis
256.5052°
True anomaly
103.57995°
Mean anomaly
103.5576°
Eccentric anomaly
103.56877°
Mean motion
3.81729 °/min
Orbital period
94.31 mins
BSTAR
0.00010535
Loading maneuver chart data...
Computing Atmospheric mass density...
Loading historical data...
Loading historical data...
Loading historical data...
Loading historical data...
Loading historical data...
Loading historical data...
Loading historical data...

Documentation

Showing up to 5 results
|